KAZTUBAC1 Weather Reports


time (UTC)temp
F
wind
direction
speed
knots
gust
knots
rain 1hr
in
rain 24hr
in
rain mn
in
humidity
%
barometer
mb
20260508121956 49 0 0.0 0.0 0.00 0.00 0.00 43 1010.6
20260508121011 49 0 0.9 2.6 0.00 0.00 0.00 43 1010.5
20260508114800 50 0 0.0 1.7 0.00 0.00 0.00 43 1010.4
20260508113726 50 0 0.0 2.6 0.00 0.00 0.00 42 1010.4
20260508112715 51 0 0.0 2.6 0.00 0.00 0.00 41 1010.3
20260508111656 51 0 0.0 1.7 0.00 0.00 0.00 41 1010.2
20260508104432 53 0 0.9 1.7 0.00 0.00 0.00 38 1010.2
20260508102323 54 0 0.9 4.3 0.00 0.00 0.00 37 1010.0
20260508101303 54 0 1.7 4.3 0.00 0.00 0.00 36 1010.1
20260508100230 54 0 0.9 2.6 0.00 0.00 0.00 36 1010.0
20260508095247 54 0 0.0 1.7 0.00 0.00 0.00 35 1010.0
20260508094251 55 0 0.0 0.9 0.00 0.00 0.00 34 1009.9
20260508093307 55 0 2.6 4.3 0.00 0.00 0.00 34 1009.8
20260508092251 56 0 0.9 3.5 0.00 0.00 0.00 34 1009.9
20260508091238 57 0 0.0 3.5 0.00 0.00 0.00 32 1010.0
20260508090242 58 0 0.0 1.7 0.00 0.00 0.00 31 1010.1
20260508085248 58 0 0.0 1.7 0.00 0.00 0.00 31 1010.1
20260508084218 58 0 0.0 1.7 0.00 0.00 0.00 31 1010.2
20260508083238 58 0 0.9 0.9 0.00 0.00 0.00 30 1010.2
20260508082222 59 0 0.0 2.6 0.00 0.00 0.00 30 1010.1
20260508081201 59 0 0.0 3.5 0.00 0.00 0.00 29 1010.4
20260508080152 60 0 0.0 2.6 0.00 0.00 0.00 28 1010.4
20260508075210 61 0 0.0 0.0 0.00 0.00 0.00 27 1010.5
20260508074152 60 0 0.0 1.7 0.00 0.00 0.00 28 1010.6
20260508073154 60 0 0.0 0.0 0.00 0.00 0.00 28 1010.6
20260508072216 60 0 0.0 1.7 0.00 0.00 0.00 28 1010.7
20260508071217 61 0 0.0 0.9 0.00 0.00 0.00 26 1010.8
20260508070224 61 0 0.0 2.6 0.00 0.00 0.00 27 1010.8
20260508064034 61 0 0.0 0.9 0.00 0.00 0.00 25 1010.8
20260508063054 62 0 0.0 0.9 0.00 0.00 0.00 25 1010.9
20260508062058 63 0 0.0 0.0 0.00 0.00 0.00 24 1011.1
20260508061047 64 0 0.9 2.6 0.00 0.00 0.00 22 1011.1
20260508060026 66 0 0.0 0.0 0.00 0.00 0.00 20 1011.0
20260508055032 68 0 0.0 0.0 0.00 0.00 0.00 19 1010.9
20260508054038 68 0 2.6 4.3 0.00 0.00 0.00 18 1010.9
20260508053019 68 0 3.5 7.8 0.00 0.00 0.00 19 1011.0
20260508051957 69 0 3.5 7.8 0.00 0.00 0.00 18 1011.3
20260508051018 69 0 1.7 7.0 0.00 0.00 0.00 19 1011.7
20260508045948 69 0 1.7 4.3 0.00 0.00 0.00 19 1011.8
20260508045007 70 0 1.7 4.3 0.00 0.00 0.00 18 1011.6
20260508044031 70 0 0.9 7.0 0.00 0.00 0.00 17 1011.1
20260508041839 70 0 1.7 6.1 0.00 0.00 0.00 17 1010.8
20260508035715 71 0 0.0 3.5 0.00 0.00 0.00 17 1010.4
20260508034731 72 0 2.6 8.7 0.00 0.00 0.00 15 1010.2
20260508033702 72 0 4.3 8.7 0.00 0.00 0.00 14 1009.6
20260508030403 74 0 7.0 11.3 0.00 0.00 0.00 13 1009.0
20260508025411 74 0 6.1 11.3 0.00 0.00 0.00 13 1009.0
20260508024354 74 0 2.6 8.7 0.00 0.00 0.00 14 1009.5
20260508023333 74 0 3.5 8.7 0.00 0.00 0.00 14 1009.5
20260508022321 74 0 4.3 13.9 0.00 0.00 0.00 13 1009.4
20260508021346 74 0 8.7 13.9 0.00 0.00 0.00 13 1009.0
20260508020332 75 0 4.3 11.3 0.00 0.00 0.00 12 1009.0
20260508015315 75 0 4.3 11.3 0.00 0.00 0.00 12 1009.0
20260508014328 76 0 2.6 20.9 0.00 0.00 0.00 12 1008.7
20260508013315 75 0 6.1 20.9 0.00 0.00 0.00 12 1008.3
20260508012249 75 0 7.8 17.4 0.00 0.00 0.00 12 1008.5
20260508011221 75 0 6.1 20.0 0.00 0.00 0.00 13 1008.7
20260508010203 75 0 6.1 20.0 0.00 0.00 0.00 14 1009.0
20260508005154 76 0 6.1 20.0 0.00 0.00 0.00 12 1008.8
20260508003009 76 0 8.7 18.2 0.00 0.00 0.00 12 1008.5
20260508001956 76 0 11.3 21.7 0.00 0.00 0.00 12 1008.2
20260508000953 77 0 10.4 21.7 0.00 0.00 0.00 10 1007.9
20260507235924 77 0 4.3 14.8 0.00 0.00 0.00 9 1007.6
20260507234924 77 0 7.8 15.6 0.00 0.00 0.00 10 1007.3
20260507233919 78 0 9.6 20.0 0.00 0.00 0.00 9 1007.4
20260507232920 79 0 12.2 20.0 0.00 0.00 0.00 9 1007.1
20260507231932 81 0 9.6 18.2 0.00 0.00 0.00 8 1006.9
20260507225856 82 0 2.6 7.0 0.00 0.00 0.00 4 1006.8
20260507224846 82 0 1.7 6.1 0.00 0.00 0.00 4 1006.8
20260507223828 82 0 0.9 6.1 0.00 0.00 0.00 3 1006.8
20260507222814 82 0 3.5 13.0 0.00 0.00 0.00 4 1007.0
20260507221806 82 0 5.2 13.0 0.00 0.00 0.00 3 1007.1
20260507220744 82 0 3.5 12.2 0.00 0.00 0.00 4 1007.2
20260507215803 80 0 4.3 25.2 0.00 0.00 0.00 6 1007.5
20260507213552 83 0 2.6 10.4 0.00 0.00 0.00 3 1007.6
20260507212600 84 0 3.5 10.4 0.00 0.00 0.00 4 1007.5
20260507211620 82 0 4.3 9.6 0.00 0.00 0.00 4 1007.5
20260507210626 82 0 2.6 8.7 0.00 0.00 0.00 4 1007.7
20260507205643 83 0 1.7 9.6 0.00 0.00 0.00 3 1007.9
20260507204608 84 0 1.7 9.6 0.00 0.00 0.00 4 1007.8
20260507203550 84 0 1.7 10.4 0.00 0.00 0.00 5 1008.0
20260507202539 83 0 3.5 10.4 0.00 0.00 0.00 4 1007.9
20260507201503 83 0 2.6 10.4 0.00 0.00 0.00 4 1008.3
20260507200444 84 0 3.5 13.0 0.00 0.00 0.00 3 1008.4
20260507192222 83 0 3.5 10.4 0.00 0.00 0.00 4 1009.1
20260507191212 84 0 3.5 9.6 0.00 0.00 0.00 4 1009.2
20260507190226 83 0 0.9 7.0 0.00 0.00 0.00 4 1009.3
20260507184117 84 0 2.6 8.7 0.00 0.00 0.00 4 1009.6
20260507183121 82 0 2.6 8.7 0.00 0.00 0.00 6 1009.7
20260507182049 81 0 2.6 7.8 0.00 0.00 0.00 4 1009.8
20260507181030 81 0 0.9 7.0 0.00 0.00 0.00 5 1009.8
20260507180032 81 0 0.9 7.0 0.00 0.00 0.00 5 1009.9
20260507175002 82 0 1.7 7.0 0.00 0.00 0.00 5 1010.0
20260507174011 81 0 1.7 6.1 0.00 0.00 0.00 5 1010.2
20260507173015 80 0 0.9 2.6 0.00 0.00 0.00 6 1010.4
20260507172037 80 0 0.9 6.1 0.00 0.00 0.00 6 1010.5
20260507171011 79 0 0.9 6.1 0.00 0.00 0.00 7 1010.5
20260507164929 76 0 0.9 6.1 0.00 0.00 0.00 13 1010.7
20260507163929 75 0 0.9 4.3 0.00 0.00 0.00 12 1010.7
20260507162857 73 0 0.0 2.6 0.00 0.00 0.00 15 1010.7
20260507161908 72 0 0.0 2.6 0.00 0.00 0.00 16 1010.9
20260507160900 71 0 0.0 1.7 0.00 0.00 0.00 17 1011.2
20260507155917 69 0 0.9 3.5 0.00 0.00 0.00 19 1011.4
20260507153834 66 0 2.6 7.0 0.00 0.00 0.00 23 1011.8
20260507151652 64 0 3.5 8.7 0.00 0.00 0.00 27 1011.8
20260507145453 60 0 0.0 2.6 0.00 0.00 0.00 30 1011.5
20260507144456 59 0 0.9 3.5 0.00 0.00 0.00 32 1011.6
20260507143448 58 0 0.9 4.3 0.00 0.00 0.00 32 1011.7
20260507142425 56 0 0.9 7.0 0.00 0.00 0.00 33 1011.9
20260507140258 53 0 0.9 6.1 0.00 0.00 0.00 36 1012.0
20260507135224 52 0 0.9 4.3 0.00 0.00 0.00 36 1012.1
20260507134211 51 0 1.7 4.3 0.00 0.00 0.00 37 1012.0
20260507133153 50 0 0.9 2.6 0.00 0.00 0.00 40 1011.9
20260507132131 49 0 0.0 1.7 0.00 0.00 0.00 41 1011.8
20260507131147 48 0 0.0 0.9 0.00 0.00 0.00 41 1011.8
20260507130145 48 0 0.0 0.0 0.00 0.00 0.00 40 1011.7
20260507125142 47 0 0.9 4.3 0.00 0.00 0.00 41 1011.6
20260507124136 47 0 0.0 0.0 0.00 0.00 0.00 41 1011.5
20260507123129 48 0 0.0 0.0 0.00 0.00 0.00 41 1011.5